Weather History for KJHW - April, 2013

Change the Weather History Date:

Wednesday, April 24, 2013

  Actual Average Record
Temperature  
Mean Temperature 45 °F -  
Max Temperature 57 °F 61 °F 87 °F (1985)
Min Temperature 33 °F 34 °F 18 °F (1986)
Degree Days  
Heating Degree Days 20    
Moisture  
Dew Point 39 °F    
Average Humidity 76    
Maximum Humidity 94    
Minimum Humidity 47    
Precipitation  
Precipitation 0.19 in - - ()
Sea Level Pressure  
Sea Level Pressure 29.85 in    
Wind  
Wind Speed 12 mph (SSW)    
Max Wind Speed 28 mph    
Max Gust Speed 33 mph    
Visibility 8 miles    
Events      
Averages and records for this station are not official NWS values.
T = Trace of Precipitation, MM = Missing Value Source: NWS Daily Summary

Daily Weather History Graph

Daily Weather History Graph

Search for Another Location

Airport or City:

Trip Planner

Search our weather history database for the weather conditions in past years. The results will help you decide how hot, cold, wet, or windy it might be!

Date:

Astronomy

Apr. 24, 2013 Rise Set
Actual Time 6:22 AM EDT 8:08 PM EDT
Civil Twilight 5:52 AM EDT 8:38 PM EDT
Nautical Twilight 5:16 AM EDT 9:15 PM EDT
Astronomical Twilight 4:37 AM EDT 9:54 PM EDT
Moon 7:09 PM EDT (4/24) 5:26 AM EDT (4/24)
Length of Visible Light 14h 46m
Length of Day
13h 46m
Waxing Gibbous, 98% of the Moon is Illuminated
Apr 24
Waxing Gibbous
Apr 25
Full
May 2
Last Quarter
May 9
New
May 18
First Quarter

Hourly Weather History & Observations

Time (EDT) Temp. Windchill Dew Point Humidity Pressure Visibility Wind Dir Wind Speed Gust Speed Precip Events Conditions
12:15 AM 53.6 °F - 33.8 °F 47% 29.95 in 10.0 mi SSE 11.5 mph - N/A   Clear
12:35 AM 53.6 °F - 33.8 °F 47% 29.95 in 10.0 mi SSE 10.4 mph - N/A   Clear
12:55 AM 51.8 °F - 33.8 °F 50% 29.95 in 10.0 mi SSE 12.7 mph 16.1 mph N/A   Clear
1:15 AM 51.8 °F - 33.8 °F 50% 29.95 in 10.0 mi South 9.2 mph 17.3 mph N/A   Mostly Cloudy
1:35 AM 51.8 °F - 33.8 °F 50% 29.93 in 10.0 mi South 11.5 mph - N/A   Overcast
1:55 AM 51.8 °F - 33.8 °F 50% 29.93 in 10.0 mi South 9.2 mph - N/A   Overcast
2:15 AM 51.8 °F - 33.8 °F 50% 29.92 in 10.0 mi South 9.2 mph - N/A   Partly Cloudy
2:35 AM 50.0 °F - 35.6 °F 58% 29.91 in 10.0 mi South 11.5 mph 16.1 mph N/A   Scattered Clouds
2:55 AM 50.0 °F - 35.6 °F 58% 29.90 in 10.0 mi South 11.5 mph 18.4 mph N/A   Mostly Cloudy
3:15 AM 50.0 °F - 35.6 °F 58% 29.90 in 10.0 mi South 11.5 mph 17.3 mph N/A   Partly Cloudy
3:35 AM 50.0 °F - 35.6 °F 58% 29.90 in 10.0 mi SSE 11.5 mph - N/A   Clear
3:55 AM 48.2 °F - 35.6 °F 62% 29.89 in 10.0 mi South 11.5 mph - N/A   Partly Cloudy
4:15 AM 48.2 °F - 35.6 °F 62% 29.89 in 10.0 mi South 9.2 mph - N/A   Clear
4:35 AM 48.2 °F - 35.6 °F 62% 29.88 in 10.0 mi South 10.4 mph - N/A   Clear
4:55 AM 48.2 °F - 35.6 °F 62% 29.88 in 10.0 mi South 9.2 mph - N/A   Mostly Cloudy
5:15 AM 48.2 °F - 35.6 °F 62% 29.88 in 10.0 mi South 9.2 mph - N/A   Overcast
5:35 AM 48.2 °F - 37.4 °F 66% 29.89 in 10.0 mi SSW 9.2 mph - N/A   Overcast
5:55 AM 48.2 °F - 37.4 °F 66% 29.89 in 10.0 mi South 6.9 mph - N/A   Overcast
6:15 AM 48.2 °F - 37.4 °F 66% 29.89 in 10.0 mi South 11.5 mph - N/A   Overcast
6:35 AM 48.2 °F - 39.2 °F 71% 29.85 in 9.0 mi SSE 15.0 mph - N/A   Overcast
6:55 AM 46.4 °F 41.5 °F 41.0 °F 81% 29.87 in 10.0 mi South 10.4 mph - 0.01 in   Overcast
7:15 AM 46.4 °F 41.9 °F 41.0 °F 81% 29.87 in 10.0 mi South 9.2 mph - N/A   Overcast
7:35 AM 46.4 °F 41.5 °F 42.8 °F 87% 29.86 in 10.0 mi South 10.4 mph - N/A   Overcast
7:55 AM 46.4 °F 42.4 °F 42.8 °F 87% 29.86 in 10.0 mi South 8.1 mph - N/A   Overcast
8:15 AM 48.2 °F - 42.8 °F 82% 29.86 in 10.0 mi South 10.4 mph - N/A   Overcast
8:35 AM 48.2 °F - 42.8 °F 82% 29.86 in 10.0 mi South 10.4 mph - N/A   Overcast
8:55 AM 48.2 °F - 44.6 °F 87% 29.85 in 10.0 mi South 10.4 mph - N/A   Overcast
9:15 AM 48.2 °F - 44.6 °F 87% 29.83 in 10.0 mi South 9.2 mph - N/A   Overcast
9:35 AM 48.2 °F - 44.6 °F 87% 29.82 in 10.0 mi South 10.4 mph - N/A   Overcast
9:55 AM 51.8 °F - 46.4 °F 82% 29.81 in 10.0 mi South 11.5 mph - N/A   Overcast
10:15 AM 53.6 °F - 46.4 °F 77% 29.80 in 10.0 mi South 16.1 mph 24.2 mph N/A   Mostly Cloudy
10:35 AM 55.4 °F - 48.2 °F 77% 29.80 in 10.0 mi SSW 16.1 mph 27.6 mph N/A   Mostly Cloudy
10:55 AM 57.2 °F - 46.4 °F 67% 29.79 in 10.0 mi South 15.0 mph 20.7 mph N/A   Overcast
11:15 AM 57.2 °F - 46.4 °F 67% 29.78 in 10.0 mi SSW 12.7 mph 23.0 mph N/A   Overcast
11:35 AM 57.2 °F - 48.2 °F 72% 29.78 in 10.0 mi South 12.7 mph 25.3 mph N/A   Overcast
11:55 AM 57.2 °F - 48.2 °F 72% 29.77 in 10.0 mi South 13.8 mph 18.4 mph N/A   Overcast
12:15 PM 57.2 °F - 48.2 °F 72% 29.76 in 10.0 mi South 12.7 mph 21.9 mph N/A   Overcast
12:35 PM 57.2 °F - 46.4 °F 67% 29.78 in 10.0 mi SSW 16.1 mph 25.3 mph N/A   Overcast
12:55 PM 55.4 °F - 48.2 °F 77% 29.74 in 9.0 mi South 8.1 mph 20.7 mph 0.02 in   Overcast
1:15 PM 53.6 °F - 50.0 °F 88% 29.76 in 10.0 mi South 11.5 mph - N/A   Overcast
1:35 PM 53.6 °F - 50.0 °F 88% 29.73 in 7.0 mi South 8.1 mph 19.6 mph N/A   Overcast
1:55 PM 55.4 °F - 51.8 °F 88% 29.72 in 10.0 mi South 9.2 mph 16.1 mph N/A   Overcast
2:15 PM 55.4 °F - 51.8 °F 88% 29.72 in 7.0 mi South 9.2 mph 17.3 mph N/A   Overcast
2:35 PM 53.6 °F - 51.8 °F 94% 29.72 in 7.0 mi South 10.4 mph 19.6 mph 0.02 in   Overcast
2:55 PM 55.4 °F - 51.8 °F 88% 29.72 in 5.0 mi SSW 17.3 mph 23.0 mph 0.05 in   Overcast
3:15 PM 55.4 °F - 51.8 °F 88% 29.70 in 8.0 mi SSW 15.0 mph 23.0 mph 0.01 in   Overcast
3:35 PM 55.4 °F - 51.8 °F 88% 29.70 in 8.0 mi SSW 12.7 mph 19.6 mph 0.02 in   Overcast
3:55 PM 55.4 °F - 51.8 °F 88% 29.68 in 9.0 mi SSW 13.8 mph 18.4 mph 0.03 in   Overcast
4:15 PM 55.4 °F - 51.8 °F 88% 29.68 in 8.0 mi SSW 18.4 mph 28.8 mph N/A   Overcast
4:35 PM 55.4 °F - 51.8 °F 88% 29.68 in 10.0 mi SSW 13.8 mph 19.6 mph N/A   Overcast
4:55 PM 51.8 °F - 48.2 °F 88% 29.72 in 6.0 mi West 27.6 mph 33.4 mph 0.01 in   Mostly Cloudy
5:15 PM 39.2 °F 30.8 °F 33.8 °F 81% 29.73 in 8.0 mi West 15.0 mph 26.5 mph 0.02 in   Overcast
5:35 PM 37.4 °F 27.8 °F 33.8 °F 87% 29.75 in 4.0 mi West 17.3 mph 28.8 mph 0.04 in   Overcast
5:55 PM 37.4 °F 26.4 °F 32.0 °F 81% 29.77 in 6.0 mi West 23.0 mph 33.4 mph 0.06 in   Overcast
6:15 PM 35.6 °F 24.8 °F 32.0 °F 87% 29.80 in 9.0 mi West 19.6 mph 31.1 mph N/A   Overcast
6:35 PM 35.6 °F 24.5 °F 32.0 °F 87% 29.82 in 9.0 mi West 20.7 mph 31.1 mph N/A   Overcast
6:55 PM 35.6 °F 25.5 °F 30.2 °F 81% 29.84 in 4.0 mi West 17.3 mph 24.2 mph 0.01 in   Overcast
7:15 PM 33.8 °F 23.5 °F 30.2 °F 87% 29.87 in 2.5 mi West 16.1 mph 25.3 mph N/A   Overcast
7:35 PM 33.8 °F 24.3 °F 30.2 °F 87% 29.87 in 1.8 mi West 13.8 mph 21.9 mph N/A   Overcast
7:55 PM 33.8 °F 23.2 °F 28.4 °F 81% 29.90 in 1.5 mi West 17.3 mph 24.2 mph N/A   Overcast
8:15 PM 33.8 °F 23.9 °F 28.4 °F 81% 29.92 in 3.0 mi West 15.0 mph 23.0 mph N/A   Overcast
8:35 PM 33.8 °F 23.5 °F 28.4 °F 81% 29.94 in 3.0 mi West 16.1 mph 25.3 mph N/A   Overcast
8:55 PM 33.8 °F 23.9 °F 30.2 °F 87% 29.96 in 5.0 mi West 15.0 mph 27.6 mph N/A   Overcast
9:15 PM 33.8 °F 24.3 °F 30.2 °F 87% 29.97 in 1.8 mi West 13.8 mph - N/A   Overcast
9:35 PM 33.8 °F 23.2 °F 28.4 °F 81% 29.99 in 2.0 mi West 17.3 mph 26.5 mph N/A   Overcast
9:55 PM 33.8 °F 24.8 °F 30.2 °F 87% 30.02 in 2.5 mi West 12.7 mph - N/A   Overcast
10:55 PM 33.8 °F 25.3 °F 30.2 °F 87% 30.05 in 5.0 mi West 11.5 mph 17.3 mph N/A   Overcast
11:15 PM 33.8 °F 25.3 °F 28.4 °F 81% 30.06 in 4.0 mi West 11.5 mph - N/A   Overcast
11:35 PM 33.8 °F 26.4 °F 30.2 °F 87% 30.07 in 4.0 mi West 9.2 mph - N/A   Overcast
11:55 PM 33.8 °F 27.0 °F 30.2 °F 87% 30.07 in 5.0 mi West 8.1 mph - N/A   Overcast